Time,TemperatureF,DewpointF,PressureIn,WindDirection,WindDirectionDegrees,WindSpeedMPH,WindSpeedGustMPH,Humidity,HourlyPrecipIn,Conditions,Clouds,dailyrainin,SoftwareType,DateUTC
2013-05-11 00:04:00,42.6,29.0,30.23,NNE,16,0.0,-999.0,59,-99.99,,,0.00,weatherlink.com 1.10,2013-05-11 06:04:00,
2013-05-11 00:19:00,41.4,29.0,30.24,NNE,16,1.0,-999.0,61,-99.99,,,0.00,weatherlink.com 1.10,2013-05-11 06:19:00,
2013-05-11 00:35:00,40.3,28.0,30.24,NNE,16,0.0,-999.0,63,-99.99,,,0.00,weatherlink.com 1.10,2013-05-11 06:35:00,
2013-05-11 00:49:00,39.6,29.0,30.24,NNE,16,0.0,-999.0,65,-99.99,,,0.00,weatherlink.com 1.10,2013-05-11 06:49:00,
2013-05-11 01:04:00,39.0,28.0,30.24,NNE,16,0.0,-999.0,66,-99.99,,,0.00,weatherlink.com 1.10,2013-05-11 07:04:00,
2013-05-11 01:19:00,40.0,29.0,30.24,NNE,16,0.0,-999.0,64,-99.99,,,0.00,weatherlink.com 1.10,2013-05-11 07:19:00,
2013-05-11 01:34:00,39.0,28.0,30.25,NNE,16,1.0,-999.0,65,-99.99,,,0.00,weatherlink.com 1.10,2013-05-11 07:34:00,
2013-05-11 01:49:00,38.4,28.0,30.26,NNE,16,1.0,-999.0,67,-99.99,,,0.00,weatherlink.com 1.10,2013-05-11 07:49:00,
2013-05-11 02:04:00,38.0,28.0,30.26,NNE,16,0.0,-999.0,67,-99.99,,,0.00,weatherlink.com 1.10,2013-05-11 08:04:00,
2013-05-11 02:19:00,37.8,28.0,30.25,NNE,16,1.0,-999.0,68,-99.99,,,0.00,weatherlink.com 1.10,2013-05-11 08:19:00,
2013-05-11 02:34:00,37.7,27.0,30.26,NNE,16,1.0,-999.0,66,-99.99,,,0.00,weatherlink.com 1.10,2013-05-11 08:34:00,
2013-05-11 02:50:00,35.5,27.0,30.27,NNE,16,1.0,-999.0,72,-99.99,,,0.00,weatherlink.com 1.10,2013-05-11 08:50:00,
2013-05-11 03:05:00,35.9,28.0,30.26,NNE,16,0.0,-999.0,72,-99.99,,,0.00,weatherlink.com 1.10,2013-05-11 09:05:00,
2013-05-11 03:19:00,37.3,28.0,30.26,NNE,16,0.0,-999.0,69,-99.99,,,0.00,weatherlink.com 1.10,2013-05-11 09:19:00,
2013-05-11 03:34:00,36.5,27.0,30.26,NNE,16,2.0,-999.0,69,-99.99,,,0.00,weatherlink.com 1.10,2013-05-11 09:34:00,
2013-05-11 03:50:00,36.0,27.0,30.27,NNE,16,0.0,-999.0,70,-99.99,,,0.00,weatherlink.com 1.10,2013-05-11 09:50:00,
2013-05-11 04:05:00,34.9,27.0,30.27,NNE,16,1.0,-999.0,72,-99.99,,,0.00,weatherlink.com 1.10,2013-05-11 10:05:00,
2013-05-11 04:20:00,34.4,27.0,30.26,NNE,16,2.0,-999.0,74,-99.99,,,0.00,weatherlink.com 1.10,2013-05-11 10:20:00,
2013-05-11 04:35:00,34.8,27.0,30.26,NNE,16,0.0,-999.0,73,-99.99,,,0.00,weatherlink.com 1.10,2013-05-11 10:35:00,
2013-05-11 04:50:00,35.3,27.0,30.26,NNE,16,3.0,-999.0,72,-99.99,,,0.00,weatherlink.com 1.10,2013-05-11 10:50:00,
2013-05-11 05:05:00,35.9,27.0,30.26,NNE,16,1.0,-999.0,71,-99.99,,,0.00,weatherlink.com 1.10,2013-05-11 11:05:00,
2013-05-11 05:20:00,36.1,28.0,30.26,NNE,16,0.0,-999.0,71,-99.99,,,0.00,weatherlink.com 1.10,2013-05-11 11:20:00,
2013-05-11 05:35:00,36.5,27.0,30.26,NNE,16,0.0,-999.0,68,-99.99,,,0.00,weatherlink.com 1.10,2013-05-11 11:35:00,
2013-05-11 05:50:00,35.4,27.0,30.26,NNE,16,2.0,-999.0,71,-99.99,,,0.00,weatherlink.com 1.10,2013-05-11 11:50:00,
2013-05-11 06:05:00,35.0,27.0,30.26,NNE,16,0.0,-999.0,73,-99.99,,,0.00,weatherlink.com 1.10,2013-05-11 12:05:00,
2013-05-11 06:20:00,35.5,27.0,30.26,NNE,16,0.0,-999.0,72,-99.99,,,0.00,weatherlink.com 1.10,2013-05-11 12:20:00,
2013-05-11 06:35:00,35.8,28.0,30.26,NNE,16,1.0,-999.0,72,-99.99,,,0.00,weatherlink.com 1.10,2013-05-11 12:35:00,
2013-05-11 06:50:00,36.5,28.0,30.26,NNE,16,1.0,-999.0,72,-99.99,,,0.00,weatherlink.com 1.10,2013-05-11 12:50:00,
2013-05-11 07:05:00,38.7,31.0,30.26,NNE,16,1.0,-999.0,73,-99.99,,,0.00,weatherlink.com 1.10,2013-05-11 13:05:00,
2013-05-11 07:20:00,41.9,33.0,30.26,NNE,16,0.0,-999.0,71,-99.99,,,0.00,weatherlink.com 1.10,2013-05-11 13:20:00,
2013-05-11 07:35:00,46.4,33.0,30.25,NNE,16,0.0,-999.0,59,-99.99,,,0.00,weatherlink.com 1.10,2013-05-11 13:35:00,
2013-05-11 07:50:00,47.8,33.0,30.25,NNE,16,0.0,-999.0,57,-99.99,,,0.00,weatherlink.com 1.10,2013-05-11 13:50:00,
2013-05-11 08:05:00,50.1,34.0,30.25,NNE,16,2.0,-999.0,55,-99.99,,,0.00,weatherlink.com 1.10,2013-05-11 14:05:00,
2013-05-11 08:20:00,52.5,35.0,30.25,NNE,19,0.0,-999.0,51,-99.99,,,0.00,weatherlink.com 1.10,2013-05-11 14:20:00,
2013-05-11 08:35:00,54.7,36.0,30.24,NNE,19,1.0,-999.0,49,-99.99,,,0.00,weatherlink.com 1.10,2013-05-11 14:35:00,
2013-05-11 08:50:00,57.5,36.0,30.24,NNE,24,3.0,-999.0,44,-99.99,,,0.00,weatherlink.com 1.10,2013-05-11 14:50:00,
2013-05-11 09:05:00,59.7,36.0,30.24,SSW,194,3.0,-999.0,42,-99.99,,,0.00,weatherlink.com 1.10,2013-05-11 15:05:00,
2013-05-11 09:20:00,61.1,35.0,30.23,SSW,209,6.0,-999.0,38,-99.99,,,0.00,weatherlink.com 1.10,2013-05-11 15:20:00,
2013-05-11 09:35:00,62.3,36.0,30.22,SSE,164,3.0,-999.0,37,-99.99,,,0.00,weatherlink.com 1.10,2013-05-11 15:35:00,
2013-05-11 09:50:00,62.9,35.0,30.22,South,182,7.0,-999.0,36,-99.99,,,0.00,weatherlink.com 1.10,2013-05-11 15:50:00,
2013-05-11 10:05:00,63.7,37.0,30.21,SSW,210,8.0,-999.0,38,-99.99,,,0.00,weatherlink.com 1.10,2013-05-11 16:05:00,
2013-05-11 10:20:00,64.1,37.0,30.20,SSW,211,6.0,-999.0,37,-99.99,,,0.00,weatherlink.com 1.10,2013-05-11 16:20:00,
2013-05-11 10:35:00,64.4,34.0,30.21,South,176,3.0,-999.0,32,-99.99,,,0.00,weatherlink.com 1.10,2013-05-11 16:35:00,
2013-05-11 10:50:00,66.2,38.0,30.19,SSW,201,0.0,-999.0,35,-99.99,,,0.00,weatherlink.com 1.10,2013-05-11 16:50:00,
2013-05-11 11:05:00,65.8,35.0,30.19,SSW,208,3.0,-999.0,32,-99.99,,,0.00,weatherlink.com 1.10,2013-05-11 17:05:00,
2013-05-11 11:20:00,66.0,34.0,30.19,South,184,4.0,-999.0,31,-99.99,,,0.00,weatherlink.com 1.10,2013-05-11 17:20:00,
2013-05-11 11:35:00,67.2,35.0,30.19,WSW,241,14.0,-999.0,30,-99.99,,,0.00,weatherlink.com 1.10,2013-05-11 17:35:00,
2013-05-11 11:50:00,67.3,37.0,30.19,WSW,249,15.0,-999.0,33,-99.99,,,0.00,weatherlink.com 1.10,2013-05-11 17:50:00,
2013-05-11 12:05:00,68.5,37.0,30.19,SW,234,14.0,-999.0,31,-99.99,,,0.00,weatherlink.com 1.10,2013-05-11 18:05:00,
2013-05-11 12:20:00,65.6,35.0,30.19,WNW,290,10.0,-999.0,32,-99.99,,,0.00,weatherlink.com 1.10,2013-05-11 18:20:00,
2013-05-11 12:35:00,65.8,35.0,30.19,NNW,327,6.0,-999.0,32,-99.99,,,0.00,weatherlink.com 1.10,2013-05-11 18:35:00,
2013-05-11 12:50:00,66.6,34.0,30.18,WNW,301,1.0,-999.0,30,-99.99,,,0.00,weatherlink.com 1.10,2013-05-11 18:50:00,
2013-05-11 13:05:00,68.0,34.0,30.18,West,272,9.0,-999.0,29,-99.99,,,0.00,weatherlink.com 1.10,2013-05-11 19:05:00,
2013-05-11 13:20:00,68.3,34.0,30.17,West,267,2.0,-999.0,28,-99.99,,,0.00,weatherlink.com 1.10,2013-05-11 19:20:00,
2013-05-11 13:35:00,70.0,38.0,30.16,WSW,238,8.0,-999.0,31,-99.99,,,0.00,weatherlink.com 1.10,2013-05-11 19:35:00,
2013-05-11 13:50:00,68.4,35.0,30.16,WSW,237,4.0,-999.0,29,-99.99,,,0.00,weatherlink.com 1.10,2013-05-11 19:50:00,
2013-05-11 14:05:00,70.0,36.0,30.16,West,259,9.0,-999.0,29,-99.99,,,0.00,weatherlink.com 1.10,2013-05-11 20:05:00,
2013-05-11 14:20:00,70.3,35.0,30.16,WSW,240,8.0,-999.0,27,-99.99,,,0.00,weatherlink.com 1.10,2013-05-11 20:20:00,
2013-05-11 14:35:00,69.5,34.0,30.15,WSW,257,11.0,-999.0,27,-99.99,,,0.00,weatherlink.com 1.10,2013-05-11 20:35:00,
2013-05-11 14:50:00,71.2,35.0,30.15,WNW,282,11.0,-999.0,27,-99.99,,,0.00,weatherlink.com 1.10,2013-05-11 20:50:00,
2013-05-11 15:05:00,71.0,36.0,30.15,West,275,14.0,-999.0,28,-99.99,,,0.00,weatherlink.com 1.10,2013-05-11 21:05:00,
2013-05-11 15:20:00,70.8,35.0,30.15,WSW,252,15.0,-999.0,27,-99.99,,,0.00,weatherlink.com 1.10,2013-05-11 21:20:00,
2013-05-11 15:35:00,70.8,32.0,30.14,NNW,333,6.0,-999.0,24,-99.99,,,0.00,weatherlink.com 1.10,2013-05-11 21:35:00,
2013-05-11 15:50:00,69.4,33.0,30.14,WNW,286,5.0,-999.0,26,-99.99,,,0.00,weatherlink.com 1.10,2013-05-11 21:50:00,
2013-05-11 16:05:00,69.8,34.0,30.14,West,275,9.0,-999.0,27,-99.99,,,0.00,weatherlink.com 1.10,2013-05-11 22:05:00,
2013-05-11 16:20:00,69.3,33.0,30.13,West,268,6.0,-999.0,26,-99.99,,,0.00,weatherlink.com 1.10,2013-05-11 22:20:00,
2013-05-11 16:35:00,69.2,34.0,30.12,NW,319,6.0,-999.0,27,-99.99,,,0.00,weatherlink.com 1.10,2013-05-11 22:35:00,
2013-05-11 16:50:00,70.3,36.0,30.12,WNW,302,3.0,-999.0,29,-99.99,,,0.00,weatherlink.com 1.10,2013-05-11 22:50:00,
2013-05-11 17:05:00,71.3,35.0,30.12,NNW,329,10.0,-999.0,26,-99.99,,,0.00,weatherlink.com 1.10,2013-05-11 23:05:00,
2013-05-11 17:20:00,69.7,35.0,30.12,WNW,282,4.0,-999.0,28,-99.99,,,0.00,weatherlink.com 1.10,2013-05-11 23:20:00,
2013-05-11 17:35:00,69.9,36.0,30.12,WNW,282,9.0,-999.0,29,-99.99,,,0.00,weatherlink.com 1.10,2013-05-11 23:35:00,
2013-05-11 17:50:00,68.5,36.0,30.12,WNW,287,10.0,-999.0,30,-99.99,,,0.00,weatherlink.com 1.10,2013-05-11 23:50:00,
2013-05-11 18:05:00,68.2,37.0,30.12,NW,304,11.0,-999.0,32,-99.99,,,0.00,weatherlink.com 1.10,2013-05-12 00:05:00,
2013-05-11 18:20:00,68.6,36.0,30.12,West,278,7.0,-999.0,30,-99.99,,,0.00,weatherlink.com 1.10,2013-05-12 00:20:00,
2013-05-11 18:35:00,68.8,36.0,30.12,West,267,6.0,-999.0,30,-99.99,,,0.00,weatherlink.com 1.10,2013-05-12 00:35:00,
2013-05-11 18:50:00,67.8,35.0,30.12,West,265,1.0,-999.0,30,-99.99,,,0.00,weatherlink.com 1.10,2013-05-12 00:50:00,
2013-05-11 19:05:00,66.3,39.0,30.11,West,265,2.0,-999.0,37,-99.99,,,0.00,weatherlink.com 1.10,2013-05-12 01:05:00,
2013-05-11 19:20:00,65.1,38.0,30.11,West,265,0.0,-999.0,37,-99.99,,,0.00,weatherlink.com 1.10,2013-05-12 01:20:00,
2013-05-11 19:35:00,64.6,41.0,30.11,West,265,1.0,-999.0,42,-99.99,,,0.00,weatherlink.com 1.10,2013-05-12 01:35:00,
2013-05-11 19:50:00,63.6,39.0,30.11,West,265,0.0,-999.0,40,-99.99,,,0.00,weatherlink.com 1.10,2013-05-12 01:50:00,
2013-05-11 20:05:00,63.0,36.0,30.11,WNW,284,3.0,-999.0,37,-99.99,,,0.00,weatherlink.com 1.10,2013-05-12 02:05:00,
2013-05-11 20:20:00,62.3,37.0,30.11,West,279,7.0,-999.0,39,-99.99,,,0.00,weatherlink.com 1.10,2013-05-12 02:20:00,
2013-05-11 20:35:00,62.3,36.0,30.11,WNW,285,3.0,-999.0,38,-99.99,,,0.00,weatherlink.com 1.10,2013-05-12 02:35:00,
2013-05-11 20:50:00,61.4,36.0,30.11,WNW,285,0.0,-999.0,39,-99.99,,,0.00,weatherlink.com 1.10,2013-05-12 02:50:00,
2013-05-11 21:05:00,59.6,37.0,30.12,WNW,285,1.0,-999.0,43,-99.99,,,0.00,weatherlink.com 1.10,2013-05-12 03:05:00,
2013-05-11 21:20:00,58.7,37.0,30.12,WNW,285,0.0,-999.0,44,-99.99,,,0.00,weatherlink.com 1.10,2013-05-12 03:20:00,
2013-05-11 21:35:00,57.3,36.0,30.12,WNW,285,0.0,-999.0,46,-99.99,,,0.00,weatherlink.com 1.10,2013-05-12 03:35:00,
2013-05-11 21:50:00,56.1,37.0,30.12,WNW,285,1.0,-999.0,50,-99.99,,,0.00,weatherlink.com 1.10,2013-05-12 03:50:00,
2013-05-11 22:05:00,54.5,36.0,30.13,WNW,285,1.0,-999.0,51,-99.99,,,0.00,weatherlink.com 1.10,2013-05-12 04:05:00,
2013-05-11 22:20:00,50.3,35.0,30.13,ENE,73,3.0,-999.0,56,-99.99,,,0.00,weatherlink.com 1.10,2013-05-12 04:20:00,
2013-05-11 22:35:00,49.6,35.0,30.13,East,79,1.0,-999.0,57,-99.99,,,0.00,weatherlink.com 1.10,2013-05-12 04:35:00,
2013-05-11 22:50:00,50.8,35.0,30.13,East,85,2.0,-999.0,56,-99.99,,,0.00,weatherlink.com 1.10,2013-05-12 04:50:00,
2013-05-11 23:05:00,50.6,35.0,30.13,East,88,0.0,-999.0,56,-99.99,,,0.00,weatherlink.com 1.10,2013-05-12 05:05:00,
2013-05-11 23:20:00,49.5,35.0,30.13,East,88,0.0,-999.0,58,-99.99,,,0.00,weatherlink.com 1.10,2013-05-12 05:20:00,
2013-05-11 23:35:00,47.5,35.0,30.13,East,88,0.0,-999.0,62,-99.99,,,0.00,weatherlink.com 1.10,2013-05-12 05:35:00,
2013-05-11 23:50:00,46.7,35.0,30.13,East,88,0.0,-999.0,64,-99.99,,,0.00,weatherlink.com 1.10,2013-05-12 05:50:00,